Location: Ar Ranvel
(48.3000°N, 4.8833°W)
Time: 21:28:35
(UTC+00:00)

Meteor 2-10 Rocket - Pass Details

Date: 04 November 2021
Orbit: 733 x 885 km, 81.2° (Epoch: 30 November)

Event Time Altitude Azimuth Distance (km) Brightness Sun altitude
Exits shadow 03:27:37 17° 113° (ESE) 1,805 5.8 -36.9°
Drops below altitude 10° 03:29:07 10° 126° (SE) 2,257 6.2 -36.7°
Sets 03:31:47 0° 138° (SE) 3,192 7.0 -36.3°
